[[{"header":{"parameterUnit":"m.s-1","parameterCategory":1,"la1":30.2991,"la2":30.254,"lo1":-89.0895,"lo2":-89.0444,"dy":0.0017,"dx":0.0017,"nx":28,"ny":28,"refTime":"2023-04-05T15:00:00:Z","depth":0,"parameterNumber":2,"parameterNumberName":"U-component_of_WINDS"},"data":[0,0,0,0,0,0,0,0,0,0,0,0,0,0,0,0,0,0,0,0,0,0,0,0,0,0,0,0,0,0,0,0,0,0,0,0,0,0,0,0,0,0,0,0,0,0,0,0,0,0,0,0,0,0,0,0,0,0,-2.5782,-2.5782,0,-2.5811,-2.5812,-2.5812,-2.5796,-2.5796,-2.5795,-2.5794,-2.5824,-2.5826,-2.5827,0,0,0,0,0,0,0,0,0,0,0,0,0,-2.5713,-2.5714,-2.5782,-2.5782,-2.5783,-2.5811,-2.5812,-2.5812,-2.5797,-2.5796,-2.5795,-2.5794,-2.5824,-2.5825,-2.5827,0,0,0,0,0,0,0,0,0,0,0,0,0,-2.5743,-2.5715,-2.5782,-2.5778,-2.5778,-2.5811,-2.5812,-2.5812,-2.5797,-2.5796,-2.5794,-2.5793,-2.5823,-2.5825,-2.5827,-2.5866,0,0,-2.5835,-2.5836,0,0,0,0,0,0,0,0,-2.5741,-2.5745,-2.5779,-2.5779,-2.5779,-2.5799,-2.5798,-2.583,-2.5797,-2.579,-2.5794,-2.5793,-2.5817,-2.5819,-2.5828,-2.5867,-2.5868,-2.5835,-2.5836,-2.5837,-2.5838,0,0,0,0,0,0,0,-2.5739,-2.5744,-2.5794,-2.5779,-2.5779,-2.5776,-2.5778,-2.5804,-2.581,-2.579,-2.5789,-2.5793,-2.5817,-2.5825,-2.5828,-2.5869,-2.5835,-2.5837,-2.5838,-2.5839,-2.5941,-2.5943,0,0,0,0,0,0,-2.5737,-2.5742,-2.5793,-2.5795,-2.5757,-2.5778,-2.5781,-2.5794,-2.5809,-2.581,-2.5794,-2.5792,-2.5822,-2.5825,-2.5829,-2.5875,-2.5837,-2.5839,-2.5841,-2.594,-2.5942,-2.5943,0,0,0,0,0,0,-2.5736,-2.5742,-2.5792,-2.5768,-2.5774,-2.578,-2.5795,-2.5795,-2.5804,-2.5812,-2.5813,-2.5802,-2.5821,-2.5826,-2.5857,-2.5875,-2.584,-2.5842,-2.5938,-2.5941,-2.5942,-2.5966,0,0,0,0,0,0,-2.5734,-2.5741,-2.5756,-2.5769,-2.5776,-2.5818,-2.5796,-2.5796,-2.5808,-2.5806,-2.582,-2.5821,-2.5821,-2.5853,-2.5859,-2.5878,-2.5844,-2.5937,-2.5939,-2.5942,-2.5964,-2.5969,-2.5973,0,0,0,0,0,-2.5731,-2.5761,-2.5756,-2.5763,-2.5794,-2.582,-2.5824,-2.5823,-2.5809,-2.5824,-2.5829,-2.582,-2.5873,-2.5857,-2.5863,-2.5883,-2.5936,-2.5939,-2.5942,-2.5961,-2.5968,-2.5973,0,0,0,0,0,0,-2.575,-2.5763,-2.5758,-2.5792,-2.5805,-2.5817,-2.5835,-2.5829,-2.5846,-2.5843,-2.5841,-2.5845,-2.5877,-2.5883,-2.5865,-2.5921,-2.5902,-2.5907,-2.5915,-2.5921,-2.5926,-2.5923,-2.5846,0,0,0,0,0,-2.5758,-2.5778,-2.5788,-2.5818,-2.5825,-2.5829,-2.584,-2.5838,-2.5851,-2.5857,-2.5864,-2.5877,-2.5897,-2.5909,-2.5928,-2.5965,-2.5968,-2.5982,-2.5987,-2.599,-2.5994,-2.6014,-2.602,-2.5953,-2.5953,-2.5953,0,0,-2.5775,-2.5784,-2.5797,-2.5822,-2.5831,-2.5852,-2.5833,-2.5856,-2.5871,-2.586,-2.5889,-2.5896,-2.591,-2.5945,-2.596,-2.5951,-2.6013,-2.5994,-2.5997,-2.5999,-2.6018,-2.6024,-2.603,-2.5955,-2.5955,-2.5954,0,0,-2.5816,-2.5825,-2.5851,-2.5861,-2.5876,-2.5879,-2.5885,-2.5898,-2.5902,-2.5932,-2.5924,-2.5943,-2.5976,-2.5987,-2.5997,-2.6043,-2.6036,-2.605,-2.6073,-2.6093,-2.6098,-2.6103,-2.6119,-2.6125,-2.6053,-2.6053,-2.6053,0,-2.5835,-2.5866,-2.5865,-2.5888,-2.59,-2.5891,-2.5917,-2.5927,-2.5947,-2.5955,-2.5945,-2.5987,-2.5997,-2.6033,-2.6045,-2.6053,-2.606,-2.6047,-2.6098,-2.6102,-2.6107,-2.6122,-2.6129,-2.6055,-2.6055,-2.6055,-2.6054,0,-2.5888,-2.591,-2.5929,-2.5949,-2.5962,-2.5987,-2.599,-2.6004,-2.6002,-2.6006,-2.6037,-2.6048,-2.6068,-2.6077,-2.6075,-2.6114,-2.6108,-2.6098,-2.6079,-2.6115,-2.6129,-2.6135,-2.6057,-2.6056,-2.6056,-2.6056,0,0,-2.594,-2.596,-2.5967,-2.5976,-2.5992,-2.6009,-2.6034,-2.6054,-2.6066,-2.6081,-2.6102,-2.6131,-2.6122,-2.6133,-2.6133,-2.615,-2.6186,-2.6138,-2.6138,-2.6146,-2.623,-2.6236,-2.6243,-2.6182,-2.6183,-2.6184,-2.6228,0,-2.5981,-2.6024,-2.6025,-2.6064,-2.6085,-2.6077,-2.6099,-2.6112,-2.6117,-2.6135,-2.614,-2.6161,-2.6148,-2.6155,-2.6172,-2.6178,-2.6203,-2.6175,-2.6201,-2.6202,-2.6196,-2.6251,-2.6257,-2.6298,-2.6234,-2.6235,-2.6236,0,-2.6035,-2.6052,-2.6093,-2.6108,-2.6116,-2.6135,-2.6154,-2.6172,-2.6186,-2.6189,-2.6202,-2.6199,-2.6225,-2.6206,-2.6241,-2.6223,-2.6233,-2.6238,-2.624,-2.6241,-2.622,-2.6253,-2.6311,-2.6317,-2.6245,-2.6244,-2.6243,0,-2.6068,-2.6101,-2.613,-2.6138,-2.6156,-2.617,-2.6177,-2.6191,-2.6203,-2.622,-2.6228,-2.6248,-2.6259,-2.6274,-2.6277,-2.6263,-2.6312,-2.6294,-2.6315,-2.6315,-2.6324,-2.6323,-2.6385,-2.6333,-2.6333,-2.6333,-2.6333,0,-2.6114,-2.6139,-2.6145,-2.6163,-2.6192,-2.6193,-2.6221,-2.6228,-2.624,-2.626,-2.6255,-2.6273,-2.6276,-2.6295,-2.6298,-2.6326,-2.6331,-2.6334,-2.6334,-2.6334,-2.6333,-2.634,-2.6337,-2.6335,-2.6334,-2.6334,-2.6334,0,-2.6155,-2.616,-2.6191,-2.6205,-2.621,-2.623,-2.6242,-2.6259,-2.6265,-2.6289,-2.6295,-2.6303,-2.6325,-2.633,-2.6356,-2.6358,-2.6392,-2.639,-2.6387,-2.6386,-2.6407,-2.6404,-2.6473,-2.6482,-2.6426,-2.6426,-2.6427,0,-2.6183,-2.6202,-2.6219,-2.6232,-2.624,-2.6261,-2.6273,-2.6276,-2.6289,-2.6308,-2.6323,-2.6345,-2.6362,-2.6399,-2.6407,-2.6427,-2.6425,-2.6448,-2.6428,-2.6427,-2.6424,-2.6423,-2.6425,-2.6451,-2.6452,-2.6452,-2.6453,0,-2.6233,-2.6234,-2.6253,-2.6272,-2.6288,-2.6303,-2.6318,-2.6329,-2.6333,-2.6349,-2.6372,-2.6385,-2.6413,-2.6434,-2.6455,-2.6463,-2.6459,-2.6459,-2.6465,-2.6464,-2.6461,-2.6463,-2.6396,-2.6457,-2.6457,-2.6456,-2.6456,-2.6456,-2.6267,-2.6284,-2.6299,-2.632,-2.6331,-2.6346,-2.6362,-2.637,-2.6389,-2.6411,-2.6412,-2.6437,-2.6452,-2.6479,-2.6489,-2.6509,-2.6501,-2.651,-2.6512,-2.6514,-2.6515,-2.6459,-2.6513,-2.6513,-2.6512,-2.6512,-2.6512,0,-2.6316,-2.6325,-2.6345,-2.6366,-2.6382,-2.6377,-2.6394,-2.6408,-2.643,-2.6444,-2.6462,-2.6488,-2.651,-2.652,-2.6541,-2.6555,-2.6554,-2.6561,-2.6559,-2.6561,-2.6521,-2.6513,-2.6562,-2.6562,-2.6562,-2.6562,-2.6561,-2.6561,-2.6343,-2.6372,-2.6375,-2.641,-2.6419,-2.6443,-2.6453,-2.6466,-2.6478,-2.6508,-2.6525,-2.6532,-2.6545,-2.6568,-2.6587,-2.659,-2.6598,-2.6606,-2.6607,-2.6569,-2.6564,-2.6559,-2.6552,-2.6607,-2.6607,-2.6645,-2.6646,-2.6646]},{"header":{"parameterUnit":"m.s-1","parameterCategory":1,"la1":30.2991,"la2":30.254,"lo1":-89.0895,"lo2":-89.0444,"dy":0.0017,"dx":0.0017,"nx":28,"ny":28,"refTime":"2023-04-05T15:00:00:Z","depth":0,"parameterNumber":3,"parameterNumberName":"V-component_of_WINDS"},"data":[0,0,0,0,0,0,0,0,0,0,0,0,0,0,0,0,0,0,0,0,0,0,0,0,0,0,0,0,0,0,0,0,0,0,0,0,0,0,0,0,0,0,0,0,0,0,0,0,0,0,0,0,0,0,0,0,0,0,3.4616,3.4616,0,3.4618,3.4618,3.4618,3.4602,3.4601,3.4601,3.46,3.46,3.46,3.4601,0,0,0,0,0,0,0,0,0,0,0,0,0,3.4598,3.4598,3.4616,3.4616,3.4616,3.4618,3.4618,3.4618,3.4602,3.4601,3.4601,3.46,3.46,3.46,3.4601,0,0,0,0,0,0,0,0,0,0,0,0,0,3.4603,3.4598,3.4616,3.4608,3.4608,3.4618,3.4618,3.4618,3.4602,3.4601,3.4601,3.46,3.46,3.46,3.4601,3.4618,0,0,3.4603,3.4603,0,0,0,0,0,0,0,0,3.4603,3.4604,3.461,3.4609,3.4608,3.4609,3.4612,3.4618,3.4602,3.4604,3.46,3.46,3.4603,3.4604,3.4605,3.4618,3.4618,3.4603,3.4603,3.4603,3.4604,0,0,0,0,0,0,0,3.4603,3.4604,3.4617,3.461,3.4609,3.4605,3.4605,3.4613,3.4607,3.4604,3.4603,3.4603,3.4603,3.4605,3.4605,3.4618,3.4603,3.4603,3.4604,3.4604,3.4648,3.4649,0,0,0,0,0,0,3.4603,3.4604,3.4617,3.4617,3.4604,3.4606,3.4606,3.461,3.4607,3.4606,3.4604,3.4602,3.4604,3.4605,3.4605,3.4627,3.4603,3.4604,3.4604,3.4647,3.4648,3.4649,0,0,0,0,0,0,3.4603,3.4605,3.4617,3.461,3.4611,3.4607,3.4611,3.461,3.4612,3.4607,3.4606,3.4607,3.4604,3.4604,3.4616,3.4627,3.4604,3.4605,3.4646,3.4648,3.4649,3.4671,0,0,0,0,0,0,3.4603,3.4605,3.4611,3.461,3.4612,3.4628,3.4612,3.461,3.4613,3.4612,3.461,3.4609,3.4603,3.4615,3.4617,3.4627,3.4605,3.4645,3.4647,3.4648,3.4669,3.4672,3.4676,0,0,0,0,0,3.4602,3.4616,3.4612,3.4614,3.462,3.4629,3.4629,3.4623,3.4614,3.4621,3.4619,3.4609,3.4626,3.4616,3.4618,3.4629,3.4645,3.4647,3.4648,3.4667,3.4672,3.4675,0,0,0,0,0,0,3.4617,3.4616,3.4611,3.4625,3.4628,3.4626,3.4634,3.4627,3.4631,3.4629,3.462,3.462,3.4634,3.4632,3.4622,3.4647,3.4634,3.4636,3.4648,3.4652,3.4655,3.4655,3.4606,0,0,0,0,0,3.4623,3.463,3.4628,3.4641,3.4643,3.4638,3.4642,3.4637,3.4638,3.4639,3.4637,3.4638,3.4644,3.4648,3.4652,3.4669,3.4669,3.4677,3.4681,3.4683,3.4685,3.4696,3.47,3.4655,3.4655,3.4655,0,0,3.4633,3.4633,3.4638,3.4645,3.4645,3.4654,3.4639,3.4648,3.4654,3.464,3.4651,3.465,3.4651,3.4666,3.4672,3.4665,3.4698,3.4686,3.4688,3.4688,3.4698,3.4703,3.4707,3.4656,3.4656,3.4656,0,0,3.4657,3.4657,3.4669,3.4671,3.4674,3.4671,3.4674,3.4674,3.4673,3.4685,3.4675,3.4682,3.4692,3.4693,3.4695,3.4723,3.4715,3.4724,3.4742,3.4752,3.4756,3.4759,3.477,3.4774,3.4726,3.4726,3.4726,0,3.4669,3.4682,3.4676,3.4686,3.469,3.4679,3.4692,3.4694,3.4697,3.47,3.4692,3.4706,3.4705,3.4721,3.4728,3.473,3.4734,3.4724,3.4756,3.4759,3.4762,3.4772,3.4776,3.4728,3.4728,3.4727,3.4727,0,3.4698,3.4707,3.4716,3.4722,3.4726,3.4737,3.4734,3.4739,3.4734,3.4733,3.4746,3.4745,3.4751,3.4754,3.4749,3.477,3.4766,3.4757,3.4743,3.4767,3.4777,3.4781,3.473,3.4729,3.4729,3.4728,0,0,3.473,3.4734,3.4738,3.4741,3.4744,3.4751,3.4762,3.4769,3.4774,3.4777,3.4787,3.4797,3.479,3.4792,3.4787,3.4796,3.482,3.4786,3.4786,3.4794,3.4845,3.4853,3.4858,3.4815,3.4815,3.4816,3.4846,0,3.4754,3.4775,3.4771,3.4791,3.48,3.4791,3.4801,3.4804,3.4803,3.4811,3.4809,3.4817,3.4806,3.4808,3.4816,3.4815,3.483,3.4813,3.4824,3.4825,3.4825,3.4862,3.487,3.4898,3.4849,3.485,3.485,0,3.4785,3.4792,3.4813,3.4817,3.482,3.4829,3.4837,3.4844,3.4847,3.4846,3.4851,3.4845,3.4856,3.4843,3.4859,3.4848,3.4852,3.4853,3.4854,3.4855,3.4839,3.4866,3.4906,3.4911,3.4856,3.4856,3.4855,0,3.4808,3.4822,3.4837,3.484,3.4844,3.4851,3.4853,3.4857,3.4862,3.4868,3.4871,3.4878,3.4882,3.4888,3.4884,3.4874,3.4902,3.4888,3.4902,3.4902,3.4909,3.4908,3.4952,3.491,3.491,3.491,3.491,0,3.4836,3.485,3.4848,3.4857,3.4873,3.4869,3.4884,3.4885,3.4888,3.4898,3.489,3.4899,3.4894,3.4902,3.4899,3.4915,3.4916,3.4916,3.4915,3.4917,3.4918,3.492,3.4919,3.4911,3.4911,3.4911,3.491,0,3.4865,3.4864,3.488,3.4884,3.4885,3.4896,3.49,3.4909,3.4908,3.492,3.4923,3.4922,3.4932,3.4929,3.494,3.4938,3.4958,3.4954,3.4957,3.4957,3.4972,3.4971,3.5019,3.5026,3.4979,3.498,3.498,0,3.4883,3.4894,3.4899,3.4906,3.4909,3.4919,3.4925,3.4922,3.4928,3.4935,3.4943,3.4953,3.4961,3.4978,3.4978,3.4987,3.4984,3.5,3.4985,3.4987,3.4985,3.4985,3.4987,3.5003,3.5004,3.5004,3.5004,0,3.4916,3.4916,3.4925,3.4935,3.4943,3.495,3.4956,3.4962,3.4959,3.4967,3.4978,3.4984,3.4997,3.5007,3.5015,3.5017,3.5011,3.5009,3.5013,3.5016,3.5018,3.5019,3.4967,3.5008,3.5008,3.5007,3.5007,3.5007,3.4941,3.4951,3.4957,3.4968,3.4973,3.498,3.499,3.4991,3.5001,3.5011,3.5008,3.5022,3.5027,3.5038,3.5041,3.5052,3.5045,3.5051,3.5052,3.5054,3.5057,3.5016,3.5053,3.5053,3.5053,3.5052,3.5052,0,3.4975,3.498,3.499,3.5,3.5009,3.5003,3.5011,3.5019,3.5031,3.5037,3.5045,3.5059,3.507,3.5072,3.5082,3.509,3.5088,3.5093,3.5093,3.5094,3.5061,3.5057,3.5095,3.5095,3.5095,3.5095,3.5095,3.5095,3.4994,3.5012,3.5012,3.5032,3.5036,3.505,3.5055,3.5062,3.5067,3.5083,3.5092,3.5094,3.5098,3.5109,3.5119,3.512,3.5124,3.5131,3.513,3.51,3.5096,3.5092,3.5088,3.5132,3.5132,3.5162,3.5163,3.5163]}]]